KD0RII Weather Reports


time (UTC)temp
F
wind
direction
speed
knots
gust
knots
rain 1hr
in
rain 24hr
in
rain mn
in
humidity
%
barometer
mb
20260906183851 104 68 0.0 0.0 0.00 0.00 0.00 38 1015.8
20260906183348 104 90 0.0 0.0 0.00 0.00 0.00 38 1015.7
20260906182847 104 76 0.0 0.0 0.00 0.00 0.00 38 1015.7
20260906182337 104 88 0.0 0.0 0.00 0.00 0.00 38 1016.0
20260906181832 104 132 0.0 0.9 0.00 0.00 0.00 38 1016.2
20260906181329 103 91 0.0 0.0 0.00 0.00 0.00 39 1016.0
20260906180824 102 86 0.0 0.0 0.00 0.00 0.00 39 1016.4
20260906180318 102 74 0.0 0.0 0.00 0.00 0.00 39 1016.5
20260906175816 102 98 0.0 0.0 0.00 0.00 0.00 39 1016.4
20260906175311 102 81 0.0 0.0 0.00 0.00 0.00 39 1016.7
20260906174810 102 87 0.0 0.0 0.00 0.00 0.00 40 1016.9
20260906174304 103 118 0.0 0.0 0.00 0.00 0.00 39 1016.9
20260906173759 102 92 0.0 0.0 0.00 0.00 0.00 40 1017.1
20260906173255 101 76 0.0 0.0 0.00 0.00 0.00 40 1017.0
20260906172753 102 86 0.0 0.9 0.00 0.00 0.00 39 1017.0
20260906172249 102 92 0.0 0.0 0.00 0.00 0.00 42 1017.2
20260906171744 102 87 0.0 0.0 0.00 0.00 0.00 41 1017.2
20260906171240 103 72 0.0 0.0 0.00 0.00 0.00 41 1017.2
20260906170735 103 67 0.0 0.0 0.00 0.00 0.00 40 1017.3
20260906170231 102 75 0.0 0.0 0.00 0.00 0.00 40 1017.3
20260906165727 101 89 0.0 0.0 0.00 0.00 0.00 43 1017.5
20260906165227 101 86 0.0 0.0 0.00 0.00 0.00 42 1017.1
20260906164721 101 89 0.0 0.0 0.00 0.00 0.00 41 1017.3
20260906164216 101 90 0.0 0.0 0.00 0.00 0.00 41 1017.4
20260906163712 101 93 0.0 0.0 0.00 0.00 0.00 41 1017.3
20260906163208 101 90 0.0 0.0 0.00 0.00 0.00 41 1017.6
20260906162705 100 96 0.0 0.0 0.00 0.00 0.00 41 1017.4
20260906162205 101 58 0.0 0.0 0.00 0.00 0.00 40 1017.5
20260906161659 101 86 0.0 0.0 0.00 0.00 0.00 41 1017.5
20260906161158 100 102 0.0 0.0 0.00 0.00 0.00 41 1017.4
20260906160657 100 98 0.0 0.0 0.00 0.00 0.00 40 1017.6
20260906160157 100 92 0.0 0.0 0.00 0.00 0.00 41 1017.5
20260906155654 100 96 0.0 0.0 0.00 0.00 0.00 42 1017.5
20260906155150 100 89 0.0 0.0 0.00 0.00 0.00 42 1017.4
20260906154644 101 91 0.0 0.0 0.00 0.00 0.00 41 1017.4
20260906154139 102 107 0.0 0.0 0.00 0.00 0.00 40 1017.3
20260906153637 103 105 0.0 0.0 0.00 0.00 0.00 39 1017.3
20260906153132 102 99 0.0 0.0 0.00 0.00 0.00 40 1017.4
20260906152627 100 90 0.0 0.0 0.00 0.00 0.00 42 1017.2
20260906152121 100 120 0.0 0.0 0.00 0.00 0.00 43 1017.2
20260906151616 98 75 0.0 0.0 0.00 0.00 0.00 47 1017.1
20260906151112 97 91 0.0 0.0 0.00 0.00 0.00 49 1017.0
20260906150607 96 108 0.0 0.0 0.00 0.00 0.00 50 1016.9
20260906145601 94 72 0.0 0.0 0.00 0.00 0.00 55 1017.0
20260906145056 93 93 0.0 0.0 0.00 0.00 0.00 57 1017.1
20260906144550 92 82 0.0 0.0 0.00 0.00 0.00 58 1017.0
20260906144046 92 85 0.0 0.0 0.00 0.00 0.00 58 1017.3
20260906143541 91 87 0.0 0.0 0.00 0.00 0.00 58 1017.0
20260906143038 90 83 0.0 0.0 0.00 0.00 0.00 60 1017.1
20260906142537 89 90 0.0 0.0 0.00 0.00 0.00 62 1017.1
20260906142032 87 93 0.0 0.0 0.00 0.00 0.00 65 1017.3
20260906141531 86 82 0.0 0.0 0.00 0.00 0.00 67 1017.4
20260906141027 86 103 0.0 0.0 0.00 0.00 0.00 65 1017.3
20260906140526 85 93 0.0 0.0 0.00 0.00 0.00 66 1017.2
20260906140025 83 87 0.0 0.0 0.00 0.00 0.00 68 1017.2
20260906135522 82 71 0.0 0.0 0.00 0.00 0.00 71 1017.2
20260906135019 81 77 0.0 0.0 0.00 0.00 0.00 72 1017.2
20260906134514 81 92 0.0 0.0 0.00 0.00 0.00 76 1017.1
20260906134014 79 80 0.0 0.0 0.00 0.00 0.00 77 1017.0
20260906133510 78 84 0.0 0.0 0.00 0.00 0.00 82 1016.9
20260906133005 77 82 0.0 0.0 0.00 0.00 0.00 85 1017.2
20260906132501 76 84 0.0 0.0 0.00 0.00 0.00 89 1017.1
20260906131955 74 81 0.0 0.0 0.00 0.00 0.00 91 1017.1
20260906131451 74 83 0.0 0.0 0.00 0.00 0.00 92 1016.9
20260906130947 73 95 0.0 0.0 0.00 0.00 0.00 92 1016.7
20260906130445 73 92 0.0 0.0 0.00 0.00 0.00 92 1016.9
20260906125941 73 92 0.0 0.0 0.00 0.00 0.00 93 1016.9
20260906125438 72 95 0.0 0.0 0.00 0.00 0.00 93 1016.7
20260906124938 72 90 0.0 0.0 0.00 0.00 0.00 93 1016.4
20260906124433 71 90 0.0 0.0 0.00 0.00 0.00 92 1016.3
20260906123928 71 92 0.0 0.0 0.00 0.00 0.00 92 1016.2
20260906123427 70 93 0.0 0.0 0.00 0.00 0.00 92 1016.1
20260906122921 70 92 0.0 0.0 0.00 0.00 0.00 92 1016.0
20260906122416 69 92 0.0 0.0 0.00 0.00 0.00 92 1016.2
20260906121914 69 92 0.0 0.0 0.00 0.00 0.00 92 1016.0
20260906121409 69 87 0.0 0.0 0.00 0.00 0.00 92 1016.2
20260906120905 69 87 0.0 0.0 0.00 0.00 0.00 92 1016.2
20260906120401 69 87 0.0 0.0 0.00 0.00 0.00 92 1016.0
20260906115856 69 87 0.0 0.0 0.00 0.00 0.00 92 1015.9
20260906115352 69 87 0.0 0.0 0.00 0.00 0.00 92 1015.8
20260906114851 69 87 0.0 0.0 0.00 0.00 0.00 92 1015.9
20260906114346 69 87 0.0 0.0 0.00 0.00 0.00 92 1015.8
20260906113841 69 87 0.0 0.0 0.00 0.00 0.00 92 1015.7
20260906113340 69 87 0.0 0.0 0.00 0.00 0.00 91 1015.6
20260906112836 69 87 0.0 0.0 0.00 0.00 0.00 91 1015.9
20260906112332 69 87 0.0 0.0 0.00 0.00 0.00 91 1016.0
20260906111831 69 87 0.0 0.0 0.00 0.00 0.00 91 1015.9
20260906111326 69 87 0.0 0.0 0.00 0.00 0.00 91 1015.8
20260906110821 70 86 0.0 0.0 0.00 0.00 0.00 91 1015.9
20260906110317 69 85 0.0 0.0 0.00 0.00 0.00 91 1015.7
20260906105816 69 83 0.0 0.0 0.00 0.00 0.00 91 1015.6
20260906105312 69 92 0.0 0.0 0.00 0.00 0.00 91 1015.6
20260906104807 69 91 0.0 0.0 0.00 0.00 0.00 91 1015.8
20260906104305 70 91 0.0 0.0 0.00 0.00 0.00 91 1015.7
20260906103803 70 93 0.0 0.0 0.00 0.00 0.00 91 1015.8
20260906103258 70 92 0.0 0.0 0.00 0.00 0.00 91 1015.6
20260906102754 70 92 0.0 0.0 0.00 0.00 0.00 91 1015.9
20260906102252 70 91 0.0 0.0 0.00 0.00 0.00 91 1015.5
20260906101748 70 91 0.0 0.0 0.00 0.00 0.00 91 1015.8
20260906101243 70 91 0.0 0.0 0.00 0.00 0.00 90 1015.8
20260906100738 70 91 0.0 0.0 0.00 0.00 0.00 90 1015.7
20260906100237 70 91 0.0 0.0 0.00 0.00 0.00 90 1015.7
20260906095733 70 91 0.0 0.0 0.00 0.00 0.00 90 1015.7
20260906095228 70 91 0.0 0.0 0.00 0.00 0.00 90 1015.6
20260906094726 70 91 0.0 0.0 0.00 0.00 0.00 90 1015.6
20260906094217 70 91 0.0 0.0 0.00 0.00 0.00 90 1015.5
20260906093712 71 91 0.0 0.0 0.00 0.00 0.00 90 1015.6
20260906093208 71 91 0.0 0.0 0.00 0.00 0.00 90 1015.6
20260906092702 71 91 0.0 0.0 0.00 0.00 0.00 90 1015.5
20260906092156 71 92 0.0 0.0 0.00 0.00 0.00 90 1015.8
20260906091653 71 91 0.0 0.0 0.00 0.00 0.00 89 1015.4
20260906091149 71 92 0.0 0.0 0.00 0.00 0.00 89 1015.4
20260906090645 71 92 0.0 0.0 0.00 0.00 0.00 89 1015.3
20260906090144 72 92 0.0 0.0 0.00 0.00 0.00 89 1015.5
20260906085643 72 92 0.0 0.0 0.00 0.00 0.00 89 1015.3
20260906085137 72 92 0.0 0.0 0.00 0.00 0.00 89 1015.3
20260906084632 72 92 0.0 0.0 0.00 0.00 0.00 89 1015.4
20260906084131 72 92 0.0 0.0 0.00 0.00 0.00 89 1015.4
20260906083626 72 91 0.0 0.0 0.00 0.00 0.00 89 1015.3
20260906083121 72 91 0.0 0.0 0.00 0.00 0.00 88 1015.3
20260906082617 72 91 0.0 0.0 0.00 0.00 0.00 88 1015.2
20260906082112 72 91 0.0 0.0 0.00 0.00 0.00 88 1015.2
20260906081608 72 91 0.0 0.0 0.00 0.00 0.00 88 1015.2
20260906081103 72 91 0.0 0.0 0.00 0.00 0.00 88 1015.3
20260906080559 72 92 0.0 0.0 0.00 0.00 0.00 87 1015.3
20260906080055 72 92 0.0 0.0 0.00 0.00 0.00 87 1015.2
20260906075549 72 92 0.0 0.0 0.00 0.00 0.00 87 1015.1
20260906075044 72 92 0.0 0.0 0.00 0.00 0.00 87 1015.2
20260906074539 73 92 0.0 0.0 0.00 0.00 0.00 86 1015.3
20260906074037 73 92 0.0 0.0 0.00 0.00 0.00 86 1015.4
20260906073533 73 92 0.0 0.0 0.00 0.00 0.00 86 1015.4
20260906073029 73 92 0.0 0.0 0.00 0.00 0.00 85 1015.2
20260906072529 74 92 0.0 0.0 0.00 0.00 0.00 85 1015.3
20260906072026 74 92 0.0 0.0 0.00 0.00 0.00 85 1015.2
20260906071522 74 92 0.0 0.0 0.00 0.00 0.00 85 1015.1
20260906071017 74 92 0.0 0.0 0.00 0.00 0.00 85 1015.1
20260906070513 74 76 0.0 0.0 0.00 0.00 0.00 85 1015.2
20260906070008 74 87 0.0 0.0 0.00 0.00 0.00 85 1015.1
20260906065508 74 87 0.0 0.0 0.00 0.00 0.00 85 1015.3
20260906065003 74 87 0.0 0.0 0.00 0.00 0.00 85 1015.2
20260906064459 74 86 0.0 0.0 0.00 0.00 0.00 85 1015.5
20260906063954 74 86 0.0 0.0 0.00 0.00 0.00 86 1015.2
20260906063449 74 86 0.0 0.0 0.00 0.00 0.00 86 1015.5
20260906062944 74 86 0.0 0.0 0.00 0.00 0.00 86 1015.5
20260906062439 74 99 0.0 0.0 0.00 0.00 0.00 86 1015.3
20260906061933 74 99 0.0 0.0 0.00 0.00 0.00 86 1015.4
20260906061424 74 99 0.0 0.0 0.00 0.00 0.00 86 1015.1
20260906060918 74 99 0.0 0.0 0.00 0.00 0.00 85 1015.4
20260906060416 74 99 0.0 0.0 0.00 0.00 0.00 85 1015.6
20260906055912 75 99 0.0 0.0 0.00 0.00 0.00 85 1015.6
20260906055407 75 99 0.0 0.0 0.00 0.00 0.00 85 1015.6
20260906054903 75 99 0.0 0.0 0.00 0.00 0.00 85 1015.7
20260906054357 75 99 0.0 0.0 0.00 0.00 0.00 85 1015.6
20260906053853 75 99 0.0 0.0 0.00 0.00 0.00 85 1015.7
20260906053349 75 99 0.0 0.0 0.00 0.00 0.00 85 1015.9
20260906052844 75 99 0.0 0.0 0.00 0.00 0.00 85 1015.6
20260906052341 75 99 0.0 0.0 0.00 0.00 0.00 85 1015.8
20260906051837 75 99 0.0 0.0 0.00 0.00 0.00 85 1015.8
20260906051337 75 99 0.0 0.0 0.00 0.00 0.00 85 1015.9
20260906050833 75 99 0.0 0.0 0.00 0.00 0.00 84 1015.9
20260906050328 75 99 0.0 0.0 0.00 0.00 0.00 84 1015.9
20260906045826 76 100 0.0 0.0 0.00 0.00 0.00 84 1015.7
20260906045320 76 101 0.0 0.0 0.00 0.00 0.00 83 1015.6
20260906044817 76 93 0.0 0.0 0.00 0.00 0.00 82 1015.8
20260906044311 77 93 0.0 0.0 0.00 0.00 0.00 82 1015.8
20260906043807 77 93 0.0 0.0 0.00 0.00 0.00 82 1015.7
20260906043303 76 84 0.0 0.0 0.00 0.00 0.00 82 1015.4
20260906042757 76 86 0.0 0.0 0.00 0.00 0.00 83 1015.5
20260906042256 76 82 0.0 0.0 0.00 0.00 0.00 83 1015.6
20260906041752 76 99 0.0 0.0 0.00 0.00 0.00 83 1015.6
20260906041247 76 99 0.0 0.0 0.00 0.00 0.00 83 1015.3
20260906040742 77 99 0.0 0.0 0.00 0.00 0.00 82 1015.5
20260906040237 77 99 0.0 0.0 0.00 0.00 0.00 82 1015.3
20260906035733 77 100 0.0 0.0 0.00 0.00 0.00 82 1015.2
20260906035229 77 96 0.0 0.0 0.00 0.00 0.00 81 1015.4
20260906034728 77 95 0.0 0.0 0.00 0.00 0.00 80 1015.2
20260906034223 77 94 0.0 0.0 0.00 0.00 0.00 80 1015.2
20260906033719 78 95 0.0 0.0 0.00 0.00 0.00 79 1015.1
20260906033218 78 94 0.0 0.0 0.00 0.00 0.00 78 1015.1
20260906032716 78 94 0.0 0.0 0.00 0.00 0.00 78 1015.1
20260906032215 78 95 0.0 0.0 0.00 0.00 0.00 77 1014.9
20260906031710 78 94 0.0 0.0 0.00 0.00 0.00 77 1015.1
20260906031206 79 94 0.0 0.0 0.00 0.00 0.00 76 1014.8
20260906030706 79 95 0.0 0.0 0.00 0.00 0.00 76 1015.0
20260906030201 80 95 0.0 0.0 0.00 0.00 0.00 75 1015.0
20260906025700 80 95 0.0 0.0 0.00 0.00 0.00 75 1014.7
20260906025154 80 93 0.0 0.0 0.00 0.00 0.00 74 1014.7
20260906024649 81 93 0.0 0.0 0.00 0.00 0.00 73 1014.7
20260906024148 81 95 0.0 0.0 0.00 0.00 0.00 72 1014.5
20260906023644 81 93 0.0 0.0 0.00 0.00 0.00 71 1014.4
20260906023143 81 93 0.0 0.0 0.00 0.00 0.00 71 1014.3
20260906022639 82 93 0.0 0.0 0.00 0.00 0.00 70 1014.5
20260906022135 82 88 0.0 0.0 0.00 0.00 0.00 71 1014.2
20260906021630 81 86 0.0 0.0 0.00 0.00 0.00 72 1014.3
20260906021128 81 93 0.0 0.0 0.00 0.00 0.00 71 1014.3
20260906020623 81 90 0.0 0.0 0.00 0.00 0.00 72 1014.1
20260906020118 81 92 0.0 0.0 0.00 0.00 0.00 72 1014.1
20260906015613 81 89 0.0 0.0 0.00 0.00 0.00 71 1013.9
20260906015111 81 89 0.0 0.0 0.00 0.00 0.00 71 1013.8
20260906014606 81 89 0.0 0.0 0.00 0.00 0.00 71 1013.7
20260906014103 82 75 0.0 0.0 0.00 0.00 0.00 69 1013.8
20260906013557 82 89 0.0 0.0 0.00 0.00 0.00 68 1013.6
20260906013053 82 89 0.0 0.0 0.00 0.00 0.00 67 1013.5
20260906012548 83 89 0.0 0.0 0.00 0.00 0.00 66 1013.5
20260906012047 83 89 0.0 0.0 0.00 0.00 0.00 65 1013.2
20260906011544 84 89 0.0 0.0 0.00 0.00 0.00 64 1013.5
20260906011043 84 89 0.0 0.0 0.00 0.00 0.00 62 1013.2
20260906010539 85 89 0.0 0.0 0.00 0.00 0.00 62 1013.6
20260906010035 85 89 0.0 0.0 0.00 0.00 0.00 61 1013.2
20260906005534 86 89 0.0 0.0 0.00 0.00 0.00 59 1013.1
20260906005032 87 89 0.0 0.0 0.00 0.00 0.00 58 1013.2
20260906004527 87 89 0.0 0.0 0.00 0.00 0.00 57 1013.5
20260906004021 88 89 0.0 0.0 0.00 0.00 0.00 54 1013.3
20260906003516 89 89 0.0 0.0 0.00 0.00 0.00 52 1013.3
20260906003012 89 89 0.0 0.0 0.00 0.00 0.00 51 1013.3
20260906002507 90 89 0.0 0.0 0.00 0.00 0.00 51 1013.5
20260906002002 90 89 0.0 0.0 0.00 0.00 0.00 50 1013.7
20260906001458 91 89 0.0 0.0 0.00 0.00 0.00 49 1013.6
20260906000952 91 89 0.0 0.0 0.00 0.00 0.00 49 1013.6
20260906000448 92 89 0.0 0.0 0.00 0.00 0.00 48 1013.3
20260905235948 93 89 0.0 0.0 0.00 0.00 0.00 46 1013.5
20260905235442 94 88 0.0 0.0 0.00 0.00 0.00 45 1013.5
20260905234937 95 88 0.0 0.0 0.00 0.00 0.00 44 1013.5
20260905234432 96 88 0.0 0.0 0.00 0.00 0.00 43 1013.3
20260905233927 97 88 0.0 0.0 0.00 0.00 0.00 41 1013.5
20260905233422 98 89 0.0 0.0 0.00 0.00 0.00 40 1013.6
20260905232921 99 89 0.0 0.0 0.00 0.00 0.00 39 1013.3
20260905232417 100 95 0.0 0.0 0.00 0.00 0.00 38 1013.5
20260905231906 100 90 0.0 0.0 0.00 0.00 0.00 37 1013.5
20260905231402 101 95 0.0 0.0 0.00 0.00 0.00 37 1013.6
20260905230859 101 109 0.0 0.0 0.00 0.00 0.00 36 1013.7
20260905230356 102 90 0.0 0.0 0.00 0.00 0.00 36 1013.8
20260905225850 103 101 0.0 0.0 0.00 0.00 0.00 35 1013.8
20260905225345 103 94 0.0 0.0 0.00 0.00 0.00 35 1013.5
20260905224840 104 97 0.0 0.0 0.00 0.00 0.00 34 1013.7
20260905224336 106 115 0.0 0.0 0.00 0.00 0.00 33 1013.7
20260905223835 106 100 0.0 0.0 0.00 0.00 0.00 33 1013.5
20260905223333 106 86 0.0 0.0 0.00 0.00 0.00 33 1013.6
20260905222828 106 93 0.0 0.0 0.00 0.00 0.00 34 1013.7
20260905222327 107 91 0.0 0.0 0.00 0.00 0.00 33 1013.6
20260905221823 108 166 0.0 0.0 0.00 0.00 0.00 32 1013.5
20260905221320 107 116 0.0 0.9 0.00 0.00 0.00 32 1013.8
20260905220815 107 96 0.0 0.0 0.00 0.00 0.00 33 1013.5
20260905220312 107 163 0.0 0.9 0.00 0.00 0.00 33 1013.6
20260905215810 107 116 0.0 0.0 0.00 0.00 0.00 33 1013.7
20260905215306 107 143 0.0 0.9 0.00 0.00 0.00 33 1013.6
20260905214802 106 90 0.0 0.0 0.00 0.00 0.00 33 1013.5
20260905214258 107 101 0.0 0.0 0.00 0.00 0.00 33 1013.7
20260905213753 106 109 0.0 0.0 0.00 0.00 0.00 33 1014.0
20260905213249 107 103 0.0 0.0 0.00 0.00 0.00 33 1013.7
20260905212744 107 90 0.0 0.0 0.00 0.00 0.00 32 1013.9
20260905212238 108 113 0.0 0.9 0.00 0.00 0.00 32 1013.9
20260905211737 108 97 0.0 0.9 0.00 0.00 0.00 32 1014.1
20260905211233 107 89 0.0 0.0 0.00 0.00 0.00 32 1014.1
20260905210730 106 103 0.0 0.0 0.00 0.00 0.00 34 1014.1
20260905210229 107 116 0.0 0.0 0.00 0.00 0.00 33 1014.2
20260905205728 107 114 0.0 0.0 0.00 0.00 0.00 32 1014.3
20260905205222 107 77 0.0 0.0 0.00 0.00 0.00 33 1014.3
20260905204716 106 95 1.7 2.6 0.00 0.00 0.00 33 1014.3
20260905204212 106 96 0.0 0.0 0.00 0.00 0.00 33 1014.4
20260905203706 107 96 0.9 1.7 0.00 0.00 0.00 33 1014.4
20260905203202 107 91 0.0 0.0 0.00 0.00 0.00 32 1014.6
20260905202657 107 127 0.0 0.9 0.00 0.00 0.00 32 1014.5
20260905202152 107 107 0.0 0.0 0.00 0.00 0.00 32 1014.8
20260905201648 107 88 0.0 0.0 0.00 0.00 0.00 34 1014.7
20260905201147 106 98 0.0 0.0 0.00 0.00 0.00 34 1014.8
20260905200643 106 283 0.0 0.9 0.00 0.00 0.00 33 1014.7
20260905200138 107 167 0.0 0.0 0.00 0.00 0.00 34 1014.6
20260905195636 106 145 0.0 0.0 0.00 0.00 0.00 34 1015.0
20260905195131 106 84 0.0 0.0 0.00 0.00 0.00 35 1015.0
20260905194627 106 173 0.9 1.7 0.00 0.00 0.00 35 1015.0
20260905194126 106 92 0.9 0.9 0.00 0.00 0.00 35 1015.1
20260905193621 106 116 0.0 0.9 0.00 0.00 0.00 34 1015.1
20260905193115 106 95 0.0 0.0 0.00 0.00 0.00 34 1015.3
20260905192611 106 137 0.0 0.9 0.00 0.00 0.00 34 1015.2
20260905192107 106 93 0.0 0.0 0.00 0.00 0.00 35 1015.3
20260905191606 106 118 0.0 0.0 0.00 0.00 0.00 35 1015.4
20260905191105 105 34 2.6 5.2 0.00 0.00 0.00 35 1015.3
20260905190603 105 127 0.0 0.9 0.00 0.00 0.00 35 1015.5
20260905185601 105 161 0.9 1.7 0.00 0.00 0.00 35 1015.7
20260905185056 104 94 0.0 0.0 0.00 0.00 0.00 36 1015.7
20260905184551 104 112 0.0 0.0 0.00 0.00 0.00 35 1015.8